* Astronomy

Members Login
Username 
 
Password 
    Remember Me  
Post Info TOPIC: CZ-4B rocket body re-entry


L

Posts: 131433
Date:
RE: CZ-4B rocket body re-entry
Permalink  
 


The CZ-4B rocket body re-entered the Earths atmosphere on the 27th February, 2013 @ 09:00 GMT ± 1 hour.



__________________


L

Posts: 131433
Date:
Permalink  
 

A CZ-4B rocket body that was launched on the 10th May, 2012, from the Taiyuan Satellite Launch Centre, for the YAOGAN 14 mission  is predicted to re-enter the Earths atmosphere on the 27th February, 2013 @ 10:30 GMT ± 6 hours.

CZ-4B RB
1 38259U 12021C   13057.34141360  .04167050  23735-5  49874-3 0  4337
2 38259 097.1758 203.6823 0011733 310.0120 050.0338 16.36338327 45934
1 38259U 12021C   13057.28024901  .03392298  23783-5  42660-3 0  4322
2 38259 097.1766 203.6101 0013104 312.0060 048.0270 16.35812466 45911
1 38259U 12021C   13056.91291187  .04282172  23623-5  71245-3 0  4316
2 38259 097.1726 203.1970 0013515 312.7095 047.3062 16.33091301 45856
1 38259U 12021C   13056.91292238  .02692869  23673-5  43574-3 0  4308
2 38259 097.1751 203.1992 0013816 316.8581 043.1790 16.33353441 45866
1 38259U 12021C   13056.66774728  .03988086  23562-5  76334-3 0  4294
2 38259 097.1733 202.9215 0013794 316.1952 043.8248 16.31658436 45811

Period:       88.52 minutes
Inclination: 97.18° 
Apogee:     212 km
Perigee:     191 km
Revolution Number:    -
Predicted  Location:    10.1°N, 4°E



__________________
Page 1 of 1  sorted by
 
Quick Reply

Please log in to post quick replies.



Create your own FREE Forum
Report Abuse
Powered by ActiveBoard